TL TrainLive
Get the app
54809

RE-JU PASS

Pass

RE → JU · 12:55 – 01:50 · 12h 55m · 542 km

Live running status
Yet to depart from REWARI
0% of the run · 0 km/h

Route & timetable

64 stops
# Station Arr Dep Halt km Day PF
1 REWARI RE 12:55 12:55 0 1
2 Nangal Mundi NNU 13:07 13:08 1m 12 1
3 Dahina Zainabad DZB 13:18 13:19 1m 24 1
4 Kanina Khas KNNK 13:29 13:30 1m 34 1
5 Gurha Kemla GRKA 13:35 13:36 1m 38 1
6 Bojawas BJWS 13:42 13:43 1m 43 1
7 Mahendragarh MHRG 13:48 13:50 2m 50 1
8 Zarpur Pali ZP 13:58 14:00 2m 58 1
9 Nangal Degrota NDRT 14:07 14:08 1m 63 1
10 Nanwan NWN 14:15 14:16 1m 69 1
11 Satnali STNL 14:22 14:23 1m 74 1
12 Sohansra SAWN 14:33 14:34 1m 85 1
13 Loharu LHU 15:00 15:05 5m 91 1
14 Kushal Pura KLSP 15:12 15:13 1m 98 1
15 Parvezpur PVZ 15:19 15:20 1m 102 1
16 Rampura Beri RMB 15:28 15:30 2m 112 1
17 Gugalwa Kirtan GLKN 15:37 15:38 1m 116 1
18 Bewar Bhojan BWBN 15:43 15:44 1m 119 1
19 Harpalu HR 15:52 15:53 1m 127 1
20 Kandharan Halt KDHN 15:59 16:00 1m 131 1
21 Sadulpur Junction SDLP 16:15 16:20 5m 141 1
22 Dokwa DKWA 16:27 16:28 1m 149 1
23 Hadyal HYL 16:37 16:38 1m 157 1
24 Dudhwakhara DKX 16:50 16:52 2m 170 1
25 Sirsala SRSL 16:59 17:00 1m 175 1
26 Aslu ASLU 17:09 17:10 1m 184 1
27 Churu CUR 17:30 17:40 10m 198 1
28 Depalsar DEP 17:48 17:49 1m 206 1
29 Juharpura JOH 17:58 17:59 1m 215 1
30 Shri Makri Nath Nagar SMNN 18:04 18:05 1m 219 1
31 Molisar MIO 18:10 18:12 2m 224 1
32 Ratangarh Junction RTGH 18:52 19:00 8m 241 1
33 Loha LOHA 19:08 19:09 1m 250 1
34 Parhihara PIH 19:19 19:20 1m 261 1
35 Talchhapar TLC 19:32 19:33 1m 274 1
36 Sujangarh SUJH 19:46 19:48 2m 287 1
37 Ladnun LAU 20:00 20:02 2m 297 1
38 Balsamand BLSD 20:13 20:14 1m 306 1
39 Sanvrad SVO 20:22 20:23 1m 315 1
40 Didwana DIA 20:34 20:36 2m 328 1
41 Marwar Balia MBSK 20:44 20:45 1m 333 1
42 Khunkhuna KKNA 20:55 20:57 2m 344 1
43 Pirwa PW 21:05 21:06 1m 350 1
44 Choti Khatu CTKT 21:18 21:20 2m 363 1
45 Khatu KHTU 21:28 21:29 1m 369 1
46 Kiroda KRC 21:41 21:42 1m 381 1
47 DEGANA JN DNA 22:00 22:03 3m 394 1
48 JALSU NANAK JACN 22:10 22:11 1m 402 1
49 JALSU JAC 22:18 22:19 1m 407 1
50 REN REN 22:31 22:33 2m 422 1
51 KHEDULI KQW 22:42 22:43 1m 429 1
52 MERTA ROAD JN MTD 23:10 23:15 5m 439 1
53 JOGI MAGRA JOM 23:24 23:25 1m 449 1
54 GOTAN GOTN 23:33 23:35 2m 459 1
55 KHARIA KHANGARH KXG 23:44 23:45 1m 466 1
56 UMED UMED 23:55 23:56 1m 477 1
57 SATHIN ROAD SWF 00:06 00:07 1m 487 2
58 PIPAR ROAD JN PPR 00:27 00:29 2m 496 2
59 KHERI SALWA KSW 00:38 00:39 1m 502 2
60 ASRANADA AAS 00:49 00:50 1m 511 2
61 JAJIWAL JWL 01:00 01:01 1m 520 2
62 BANAR BNO 01:09 01:10 1m 528 2
63 RAIKA BAGH RKB 01:32 01:34 2m 540 2
64 Jodhpur Junction JU 01:50 01:50 542 2

Service details

Type
Pass
Distance
542 km
Duration
12h 55m
Avg speed
42 km/h
Pantry car
Not published
Classes
Not published
Runs on
Not published

Coach position

Order from the engine.

SLR
Luggage / Guard
ENG
Locomotive
SLR
Luggage / Guard

Rake composition can change at short notice. Confirm on the station display board.